ABW5927 USSS-ULLI

Flight info

Callsign ABW5927
Flight time 2h 26m
Altitude 34000
Route UMTEK M864 LUNAG N170 PENUS T762 GEBSI M60 INSOK P979 BEPOL
Aircraft B77L/H-SDE1E2E3FGHIJ2J3J4J5M1RWXY/LB1D1

Departure

Time 2026-05-05 16:14
Airport Koltsovo Airport (USSS)

Arrival

Time 2026-05-05 18:41
Airport Pulkovo Airport (ULLI)
Time Latitude Longitude Altitude Speed Heading
2026-05-05 15:02 56.74737 60.78267 779 ft 0 kts 180°
2026-05-05 16:03 56.74727 60.78267 783 ft 3 kts 180°
2026-05-05 16:04 56.74709 60.78267 783 ft 3 kts 180°
2026-05-05 16:04 56.74692 60.78267 783 ft 3 kts 176°
2026-05-05 16:04 56.74673 60.78289 783 ft 4 kts 134°
2026-05-05 16:04 56.74665 60.78333 783 ft 5 kts 100°
2026-05-05 16:05 56.74662 60.78421 783 ft 8 kts 91°
2026-05-05 16:05 56.74661 60.78522 783 ft 9 kts 90°
2026-05-05 16:05 56.74661 60.78668 783 ft 12 kts 90°
2026-05-05 16:05 56.74661 60.78816 783 ft 12 kts 90°
2026-05-05 16:06 56.74661 60.78967 784 ft 12 kts 90°
2026-05-05 16:06 56.74661 60.79117 784 ft 12 kts 90°
2026-05-05 16:06 56.74661 60.79267 784 ft 12 kts 90°
2026-05-05 16:06 56.74661 60.79417 784 ft 12 kts 90°
2026-05-05 16:07 56.74661 60.79567 784 ft 12 kts 90°
2026-05-05 16:07 56.74661 60.79717 784 ft 12 kts 90°
2026-05-05 16:07 56.74661 60.79867 784 ft 12 kts 90°
2026-05-05 16:07 56.74661 60.80017 784 ft 12 kts 90°
2026-05-05 16:08 56.74661 60.80167 784 ft 12 kts 90°
2026-05-05 16:08 56.74661 60.80317 784 ft 12 kts 90°
2026-05-05 16:08 56.74660 60.80467 784 ft 12 kts 90°
2026-05-05 16:08 56.74660 60.80618 784 ft 12 kts 90°
2026-05-05 16:09 56.74660 60.80768 784 ft 12 kts 90°
2026-05-05 16:09 56.74660 60.80918 784 ft 12 kts 90°
2026-05-05 16:09 56.74660 60.81068 784 ft 12 kts 90°
2026-05-05 16:09 56.74660 60.81218 785 ft 12 kts 90°
2026-05-05 16:10 56.74660 60.81368 785 ft 12 kts 90°
2026-05-05 16:10 56.74660 60.81516 785 ft 12 kts 90°
2026-05-05 16:10 56.74660 60.81666 785 ft 12 kts 90°
2026-05-05 16:10 56.74660 60.81816 785 ft 12 kts 90°
2026-05-05 16:11 56.74660 60.81966 785 ft 12 kts 90°
2026-05-05 16:11 56.74593 60.82200 784 ft 7 kts 179°
2026-05-05 16:12 56.74544 60.82202 783 ft 8 kts 179°
2026-05-05 16:12 56.74473 60.82114 784 ft 4 kts 270°
2026-05-05 16:13 56.74474 60.81589 784 ft 77 kts 270°
2026-05-05 16:13 56.74477 60.80187 784 ft 143 kts 271°
2026-05-05 16:13 56.74472 60.78106 974 ft 173 kts 269°
2026-05-05 16:14 56.74485 60.73696 1992 ft 178 kts 269°
2026-05-05 16:14 56.74478 60.69070 2808 ft 195 kts 270°
2026-05-05 16:15 56.74477 60.63814 3484 ft 221 kts 269°
2026-05-05 16:15 56.75194 60.58057 4222 ft 249 kts 299°
2026-05-05 16:16 56.76729 60.52362 5310 ft 256 kts 276°
2026-05-05 16:16 56.76768 60.45836 6672 ft 258 kts 272°
2026-05-05 16:17 56.77075 60.39161 7821 ft 268 kts 276°
2026-05-05 16:17 56.77294 60.35769 8485 ft 272 kts 277°
2026-05-05 16:18 56.77773 60.28908 9888 ft 274 kts 277°
2026-05-05 16:18 56.78021 60.25416 10338 ft 285 kts 277°
2026-05-05 16:18 56.78566 60.17675 10668 ft 329 kts 277°
2026-05-05 16:19 56.78863 60.13396 10872 ft 351 kts 277°
2026-05-05 16:19 56.79150 60.08906 11347 ft 362 kts 277°
2026-05-05 16:19 56.79703 59.99732 12792 ft 374 kts 277°
2026-05-05 16:20 56.80267 59.90271 14386 ft 382 kts 277°
2026-05-05 16:20 56.80845 59.80522 15809 ft 390 kts 277°
2026-05-05 16:21 56.81429 59.70569 17230 ft 399 kts 277°
2026-05-05 16:22 56.82315 59.55222 19171 ft 410 kts 277°
2026-05-05 16:22 56.82906 59.44785 20394 ft 417 kts 277°
2026-05-05 16:23 56.83499 59.34166 21560 ft 424 kts 277°
2026-05-05 16:23 56.83796 59.28784 22135 ft 427 kts 277°
2026-05-05 16:23 56.84392 59.17871 23299 ft 434 kts 276°
2026-05-05 16:24 56.84759 59.12392 23744 ft 436 kts 282°
2026-05-05 16:24 56.85667 59.07081 24139 ft 440 kts 294°
2026-05-05 16:24 56.88875 58.97830 25192 ft 440 kts 310°
2026-05-05 16:25 56.90865 58.93643 25611 ft 444 kts 311°
2026-05-05 16:25 56.94984 58.85089 26481 ft 450 kts 311°
2026-05-05 16:25 56.97056 58.80735 26953 ft 452 kts 311°
2026-05-05 16:26 57.01185 58.71939 27853 ft 458 kts 311°
2026-05-05 16:26 57.05344 58.62980 28657 ft 463 kts 311°
2026-05-05 16:27 57.07436 58.58457 29056 ft 466 kts 310°
2026-05-05 16:27 57.09537 58.53905 29446 ft 468 kts 310°
2026-05-05 16:27 57.11644 58.49335 29909 ft 468 kts 310°
2026-05-05 16:27 57.13741 58.44778 30386 ft 466 kts 310°
2026-05-05 16:28 57.15832 58.40225 30851 ft 464 kts 310°
2026-05-05 16:28 57.17916 58.35680 31256 ft 463 kts 310°
2026-05-05 16:28 57.19988 58.31152 31669 ft 462 kts 310°
2026-05-05 16:28 57.22061 58.26616 32061 ft 462 kts 310°
2026-05-05 16:29 57.24125 58.22091 32464 ft 461 kts 310°
2026-05-05 16:29 57.26186 58.17563 32881 ft 459 kts 310°
2026-05-05 16:29 57.28236 58.13050 33314 ft 457 kts 310°
2026-05-05 16:29 57.30251 58.08607 33700 ft 456 kts 310°
2026-05-05 16:30 57.32293 58.04094 33821 ft 460 kts 309°
2026-05-05 16:30 57.34282 57.99690 33859 ft 462 kts 309°
2026-05-05 16:30 57.38384 57.90585 33861 ft 457 kts 309°
2026-05-05 16:31 57.42402 57.81499 33865 ft 454 kts 306°
2026-05-05 16:31 57.45577 57.71405 33878 ft 453 kts 294°
2026-05-05 16:32 57.48016 57.60621 33862 ft 453 kts 292°
2026-05-05 16:32 57.50427 57.49820 33856 ft 453 kts 292°
2026-05-05 16:33 57.52851 57.39009 33862 ft 453 kts 292°
2026-05-05 16:33 57.55281 57.28184 33850 ft 453 kts 292°
2026-05-05 16:34 57.57689 57.17418 33845 ft 454 kts 292°
2026-05-05 16:34 57.60111 57.06539 33842 ft 454 kts 292°
2026-05-05 16:35 57.62482 56.95831 33842 ft 454 kts 292°
2026-05-05 16:35 57.64884 56.84924 33846 ft 455 kts 292°
2026-05-05 16:36 57.67280 56.73985 33837 ft 455 kts 292°
2026-05-05 16:36 57.69664 56.63045 33844 ft 455 kts 291°
2026-05-05 16:37 57.72039 56.52089 33833 ft 455 kts 291°
2026-05-05 16:37 57.74405 56.41113 33831 ft 455 kts 291°
2026-05-05 16:38 57.76761 56.30129 33826 ft 454 kts 291°
2026-05-05 16:38 57.79093 56.19198 33827 ft 454 kts 291°
2026-05-05 16:39 57.81431 56.08181 33830 ft 454 kts 291°
2026-05-05 16:39 57.83719 55.97340 33834 ft 454 kts 291°
2026-05-05 16:40 57.86037 55.86300 33829 ft 454 kts 291°
2026-05-05 16:40 57.88346 55.75240 33831 ft 453 kts 290°
2026-05-05 16:41 57.90637 55.64209 33815 ft 452 kts 290°
2026-05-05 16:41 57.92896 55.53270 33817 ft 451 kts 290°
2026-05-05 16:42 57.95156 55.42269 33806 ft 450 kts 290°
2026-05-05 16:42 57.97404 55.31264 33804 ft 450 kts 290°
2026-05-05 16:43 57.99646 55.20230 33833 ft 450 kts 290°
2026-05-05 16:43 58.01867 55.09238 33809 ft 449 kts 289°
2026-05-05 16:44 58.04046 54.98395 33803 ft 449 kts 289°
2026-05-05 16:44 58.06246 54.87384 33800 ft 448 kts 289°
2026-05-05 16:45 58.08440 54.76347 33801 ft 448 kts 289°
2026-05-05 16:45 58.10603 54.65401 33791 ft 447 kts 289°
2026-05-05 16:46 58.12770 54.54375 33823 ft 447 kts 289°
2026-05-05 16:46 58.14930 54.43325 33807 ft 447 kts 289°
2026-05-05 16:47 58.17079 54.32266 33804 ft 447 kts 288°
2026-05-05 16:47 58.19220 54.21184 33802 ft 447 kts 288°
2026-05-05 16:48 58.20991 54.11973 33801 ft 447 kts 288°
2026-05-05 16:48 58.23113 54.00877 33798 ft 447 kts 288°
2026-05-05 16:49 58.25192 53.89942 33827 ft 447 kts 288°
2026-05-05 16:49 58.27298 53.78808 33808 ft 447 kts 288°
2026-05-05 16:50 58.29384 53.67705 33798 ft 446 kts 287°
2026-05-05 16:50 58.31460 53.56594 33799 ft 445 kts 287°
2026-05-05 16:51 58.33506 53.45581 33793 ft 444 kts 287°
2026-05-05 16:51 58.35556 53.34488 33793 ft 444 kts 287°
2026-05-05 16:52 58.37593 53.23395 33820 ft 444 kts 287°
2026-05-05 16:52 58.39621 53.12285 33788 ft 444 kts 287°
2026-05-05 16:53 58.41639 53.01166 33783 ft 443 kts 287°
2026-05-05 16:53 58.43612 52.90231 33777 ft 443 kts 287°
2026-05-05 16:54 58.45606 52.79113 33795 ft 442 kts 287°
2026-05-05 16:54 58.47590 52.67989 33790 ft 442 kts 286°
2026-05-05 16:55 58.49565 52.56845 33777 ft 442 kts 286°
2026-05-05 16:55 58.51520 52.45745 33789 ft 443 kts 286°
2026-05-05 16:56 58.53476 52.34573 33768 ft 442 kts 286°
2026-05-05 16:56 58.55422 52.23395 33770 ft 442 kts 286°
2026-05-05 16:57 58.57357 52.12210 33768 ft 442 kts 286°
2026-05-05 16:57 58.59281 52.01018 33769 ft 442 kts 286°
2026-05-05 16:58 58.61168 51.89976 33771 ft 443 kts 286°
2026-05-05 16:58 58.63077 51.78731 33773 ft 443 kts 286°
2026-05-05 16:59 58.64974 51.67490 33765 ft 442 kts 286°
2026-05-05 16:59 58.66859 51.56252 33755 ft 441 kts 286°
2026-05-05 17:00 58.68719 51.45096 33753 ft 441 kts 285°
2026-05-05 17:00 58.70578 51.33870 33747 ft 440 kts 285°
2026-05-05 17:01 58.72425 51.22651 33748 ft 439 kts 285°
2026-05-05 17:01 58.74258 51.11442 33758 ft 439 kts 285°
2026-05-05 17:02 58.76084 51.00204 33748 ft 440 kts 285°
2026-05-05 17:02 58.77872 50.89131 33743 ft 440 kts 285°
2026-05-05 17:03 58.79679 50.77864 33742 ft 440 kts 285°
2026-05-05 17:03 58.81479 50.66571 33740 ft 440 kts 285°
2026-05-05 17:04 58.83270 50.55260 33733 ft 440 kts 285°
2026-05-05 17:04 58.85040 50.44008 33742 ft 442 kts 285°
2026-05-05 17:05 58.86818 50.32635 33741 ft 443 kts 285°
2026-05-05 17:05 58.88592 50.21207 33741 ft 444 kts 285°
2026-05-05 17:06 58.90360 50.09746 33725 ft 445 kts 284°
2026-05-05 17:06 58.92082 49.98500 33731 ft 444 kts 284°
2026-05-05 17:07 58.93829 49.87017 33725 ft 444 kts 284°
2026-05-05 17:07 58.95565 49.75529 33725 ft 444 kts 284°
2026-05-05 17:08 58.97289 49.64043 33727 ft 443 kts 284°
2026-05-05 17:08 58.99000 49.52563 33735 ft 443 kts 284°
2026-05-05 17:09 59.00685 49.41174 33735 ft 443 kts 284°
2026-05-05 17:09 59.02373 49.29693 33733 ft 442 kts 284°
2026-05-05 17:10 59.04052 49.18191 33726 ft 442 kts 284°
2026-05-05 17:10 59.05719 49.06682 33745 ft 443 kts 284°
2026-05-05 17:11 59.07355 48.95317 33742 ft 444 kts 283°
2026-05-05 17:11 59.09008 48.83746 33730 ft 444 kts 283°
2026-05-05 17:12 59.10654 48.72145 33734 ft 445 kts 283°
2026-05-05 17:12 59.12287 48.60549 33730 ft 445 kts 283°
2026-05-05 17:13 59.13903 48.48991 33729 ft 445 kts 283°
2026-05-05 17:13 59.15518 48.37352 33737 ft 445 kts 283°
2026-05-05 17:14 59.17127 48.25672 33738 ft 446 kts 283°
2026-05-05 17:14 59.18732 48.13933 33731 ft 448 kts 283°
2026-05-05 17:15 59.20317 48.02252 33730 ft 449 kts 283°
2026-05-05 17:15 59.21880 47.90645 33734 ft 449 kts 283°
2026-05-05 17:16 59.23460 47.78826 33731 ft 450 kts 283°
2026-05-05 17:16 59.25030 47.66997 33749 ft 450 kts 282°
2026-05-05 17:17 59.26589 47.55144 33738 ft 450 kts 282°
2026-05-05 17:17 59.28140 47.43269 33734 ft 451 kts 282°
2026-05-05 17:18 59.29682 47.31366 33735 ft 451 kts 282°
2026-05-05 17:18 59.31214 47.19445 33735 ft 452 kts 282°
2026-05-05 17:19 59.32736 47.07508 33734 ft 452 kts 282°
2026-05-05 17:19 59.34213 46.95830 33758 ft 452 kts 282°
2026-05-05 17:20 59.35717 46.83836 33739 ft 454 kts 282°
2026-05-05 17:20 59.37215 46.71796 33743 ft 455 kts 282°
2026-05-05 17:21 59.38708 46.59700 33738 ft 456 kts 282°
2026-05-05 17:22 59.40929 46.41507 33739 ft 457 kts 282°
2026-05-05 17:22 59.42399 46.29342 33741 ft 458 kts 282°
2026-05-05 17:23 59.43857 46.17167 33748 ft 458 kts 281°
2026-05-05 17:23 59.45308 46.04948 33744 ft 459 kts 281°
2026-05-05 17:24 59.46726 45.92906 33738 ft 459 kts 281°
2026-05-05 17:24 59.48156 45.80652 33744 ft 460 kts 281°
2026-05-05 17:25 59.49565 45.68469 33751 ft 460 kts 281°
2026-05-05 17:25 59.50974 45.56192 33745 ft 459 kts 281°
2026-05-05 17:26 59.52141 45.43847 33744 ft 458 kts 276°
2026-05-05 17:26 59.52901 45.31385 33738 ft 458 kts 275°
2026-05-05 17:27 59.53645 45.18936 33746 ft 457 kts 275°
2026-05-05 17:27 59.54403 45.06485 33744 ft 457 kts 275°
2026-05-05 17:28 59.55143 44.94249 33750 ft 457 kts 275°
2026-05-05 17:28 59.55886 44.81781 33751 ft 457 kts 275°
2026-05-05 17:29 59.56646 44.69330 33773 ft 457 kts 276°
2026-05-05 17:29 59.57550 44.56891 33753 ft 458 kts 276°
2026-05-05 17:30 59.58458 44.44461 33752 ft 457 kts 276°
2026-05-05 17:30 59.59331 44.32042 33752 ft 457 kts 276°
2026-05-05 17:31 59.60187 44.19609 33748 ft 457 kts 276°
2026-05-05 17:31 59.61031 44.07185 33754 ft 457 kts 276°
2026-05-05 17:32 59.61845 43.94970 33756 ft 457 kts 275°
2026-05-05 17:32 59.62658 43.82612 33759 ft 457 kts 275°
2026-05-05 17:33 59.63465 43.70171 33754 ft 456 kts 275°
2026-05-05 17:33 59.64259 43.57748 33760 ft 455 kts 275°
2026-05-05 17:34 59.65040 43.45325 33757 ft 455 kts 275°
2026-05-05 17:34 59.65809 43.32911 33763 ft 454 kts 275°
2026-05-05 17:35 59.66566 43.20505 33759 ft 454 kts 275°
2026-05-05 17:35 59.67186 43.10186 33772 ft 454 kts 275°
2026-05-05 17:36 59.67909 42.97981 33758 ft 454 kts 275°
2026-05-05 17:36 59.68629 42.85630 33757 ft 453 kts 274°
2026-05-05 17:37 59.69342 42.73203 33763 ft 452 kts 274°
2026-05-05 17:37 59.70035 42.60891 33758 ft 452 kts 274°
2026-05-05 17:38 59.70690 42.48479 33761 ft 451 kts 274°
2026-05-05 17:38 59.71322 42.36121 33763 ft 451 kts 274°
2026-05-05 17:39 59.71939 42.23899 33764 ft 451 kts 274°
2026-05-05 17:39 59.72556 42.11514 33762 ft 452 kts 274°
2026-05-05 17:40 59.73151 41.99331 33762 ft 452 kts 274°
2026-05-05 17:40 59.73745 41.86930 33764 ft 452 kts 274°
2026-05-05 17:41 59.74328 41.74535 33762 ft 451 kts 274°
2026-05-05 17:41 59.74900 41.62140 33769 ft 451 kts 273°
2026-05-05 17:42 59.75427 41.49729 33787 ft 451 kts 272°
2026-05-05 17:42 59.75903 41.37328 33769 ft 450 kts 272°
2026-05-05 17:43 59.76370 41.24953 33764 ft 449 kts 272°
2026-05-05 17:43 59.76829 41.12613 33761 ft 447 kts 272°
2026-05-05 17:44 59.77275 41.00385 33761 ft 447 kts 272°
2026-05-05 17:44 59.77705 40.88277 33754 ft 446 kts 272°
2026-05-05 17:45 59.78130 40.76003 33756 ft 446 kts 272°
2026-05-05 17:45 59.78544 40.63712 33764 ft 446 kts 272°
2026-05-05 17:46 59.78946 40.51413 33763 ft 446 kts 272°
2026-05-05 17:46 59.79336 40.39143 33764 ft 445 kts 271°
2026-05-05 17:47 59.79716 40.26890 33764 ft 444 kts 271°
2026-05-05 17:47 59.80071 40.14643 33758 ft 443 kts 270°
2026-05-05 17:48 59.80165 40.02406 33762 ft 443 kts 268°
2026-05-05 17:48 59.80195 39.90459 33762 ft 443 kts 269°
2026-05-05 17:49 59.80259 39.78216 33752 ft 442 kts 269°
2026-05-05 17:49 59.80324 39.66011 33756 ft 442 kts 269°
2026-05-05 17:50 59.80407 39.53810 33748 ft 441 kts 269°
2026-05-05 17:50 59.80482 39.41623 33751 ft 441 kts 269°
2026-05-05 17:51 59.80511 39.29434 33756 ft 441 kts 268°
2026-05-05 17:51 59.80477 39.17251 33739 ft 441 kts 268°
2026-05-05 17:52 59.80432 39.05058 33773 ft 441 kts 268°
2026-05-05 17:52 59.80385 38.93069 33755 ft 441 kts 267°
2026-05-05 17:53 59.80328 38.80877 33729 ft 441 kts 267°
2026-05-05 17:53 59.80261 38.68748 33733 ft 440 kts 267°
2026-05-05 17:54 59.80183 38.56602 33742 ft 440 kts 267°
2026-05-05 17:54 59.80093 38.44453 33733 ft 440 kts 267°
2026-05-05 17:55 59.79993 38.32268 33736 ft 439 kts 267°
2026-05-05 17:55 59.79930 38.20158 33751 ft 440 kts 271°
2026-05-05 17:56 59.80989 38.08191 33739 ft 445 kts 282°
2026-05-05 17:56 59.83199 37.96842 33736 ft 448 kts 291°
2026-05-05 17:57 59.85839 37.85678 33721 ft 448 kts 291°
2026-05-05 17:57 59.88488 37.74386 33720 ft 448 kts 290°
2026-05-05 17:58 59.91044 37.63261 33718 ft 447 kts 290°
2026-05-05 17:58 59.93613 37.51960 33731 ft 447 kts 290°
2026-05-05 17:59 59.96169 37.40646 33710 ft 447 kts 290°
2026-05-05 17:59 59.98711 37.29341 33724 ft 446 kts 290°
2026-05-05 18:00 60.01225 37.18106 33710 ft 446 kts 290°
2026-05-05 18:00 60.03749 37.06768 33707 ft 446 kts 290°
2026-05-05 18:01 60.06216 36.95623 33717 ft 445 kts 290°
2026-05-05 18:01 60.08687 36.84248 33712 ft 445 kts 290°
2026-05-05 18:02 60.11150 36.72857 33707 ft 445 kts 290°
2026-05-05 18:02 60.13655 36.61500 33706 ft 445 kts 290°
2026-05-05 18:03 60.16174 36.50151 33708 ft 445 kts 290°
2026-05-05 18:03 60.18678 36.38787 33726 ft 445 kts 290°
2026-05-05 18:04 60.21164 36.27412 33718 ft 444 kts 290°
2026-05-05 18:04 60.23635 36.16038 33707 ft 444 kts 290°
2026-05-05 18:05 60.26082 36.04711 33706 ft 443 kts 290°
2026-05-05 18:05 60.28489 35.93513 33713 ft 442 kts 290°
2026-05-05 18:06 60.30927 35.82107 33712 ft 442 kts 290°
2026-05-05 18:06 60.33336 35.70772 33713 ft 442 kts 289°
2026-05-05 18:07 60.35747 35.59369 33718 ft 441 kts 289°
2026-05-05 18:07 60.38144 35.47966 33710 ft 440 kts 289°
2026-05-05 18:08 60.40525 35.36584 33715 ft 439 kts 289°
2026-05-05 18:08 60.42892 35.25197 33712 ft 437 kts 288°
2026-05-05 18:08 60.43774 35.19352 33712 ft 432 kts 277°
2026-05-05 18:09 60.44077 35.13332 33724 ft 429 kts 269°
2026-05-05 18:09 60.43424 35.01411 33726 ft 426 kts 255°
2026-05-05 18:10 60.41935 34.89953 33719 ft 429 kts 255°
2026-05-05 18:10 60.40397 34.78273 33724 ft 430 kts 255°
2026-05-05 18:11 60.38879 34.66544 33723 ft 432 kts 255°
2026-05-05 18:11 60.37360 34.54741 33722 ft 435 kts 255°
2026-05-05 18:12 60.35830 34.42901 33709 ft 434 kts 255°
2026-05-05 18:12 60.35077 34.37107 33514 ft 432 kts 255°
2026-05-05 18:12 60.34310 34.31236 33155 ft 433 kts 255°
2026-05-05 18:12 60.33540 34.25364 32877 ft 433 kts 255°
2026-05-05 18:13 60.32769 34.19509 32691 ft 430 kts 255°
2026-05-05 18:13 60.31240 34.07959 32611 ft 420 kts 255°
2026-05-05 18:13 60.30487 34.02301 32480 ft 417 kts 255°
2026-05-05 18:14 60.29758 33.96852 32278 ft 416 kts 255°
2026-05-05 18:14 60.29004 33.91228 32030 ft 415 kts 255°
2026-05-05 18:14 60.28248 33.85611 31828 ft 414 kts 255°
2026-05-05 18:14 60.27495 33.80032 31636 ft 412 kts 255°
2026-05-05 18:15 60.26741 33.74467 31212 ft 412 kts 254°
2026-05-05 18:15 60.25986 33.68917 30645 ft 409 kts 254°
2026-05-05 18:15 60.25233 33.63399 30107 ft 406 kts 254°
2026-05-05 18:15 60.24486 33.57946 29498 ft 403 kts 254°
2026-05-05 18:16 60.23742 33.52530 28888 ft 400 kts 254°
2026-05-05 18:16 60.23002 33.47164 28315 ft 396 kts 254°
2026-05-05 18:16 60.22268 33.41860 27764 ft 392 kts 254°
2026-05-05 18:16 60.21539 33.36611 27205 ft 388 kts 254°
2026-05-05 18:17 60.20823 33.31462 26666 ft 385 kts 254°
2026-05-05 18:17 60.20102 33.26294 26118 ft 382 kts 254°
2026-05-05 18:17 60.19385 33.21177 25591 ft 379 kts 254°
2026-05-05 18:17 60.18670 33.16094 25055 ft 376 kts 254°
2026-05-05 18:18 60.17957 33.11047 24559 ft 374 kts 254°
2026-05-05 18:18 60.17247 33.06045 24029 ft 371 kts 254°
2026-05-05 18:18 60.16540 33.01080 23515 ft 369 kts 254°
2026-05-05 18:18 60.15858 32.96305 22967 ft 366 kts 254°
2026-05-05 18:19 60.15158 32.91408 22393 ft 363 kts 254°
2026-05-05 18:19 60.14461 32.86553 21870 ft 360 kts 254°
2026-05-05 18:19 60.13775 32.81779 21348 ft 349 kts 254°
2026-05-05 18:19 60.13119 32.77231 20871 ft 331 kts 254°
2026-05-05 18:20 60.12482 32.72823 20428 ft 328 kts 254°
2026-05-05 18:20 60.12062 32.69923 20128 ft 327 kts 254°
2026-05-05 18:20 60.11214 32.64087 19513 ft 325 kts 253°
2026-05-05 18:20 60.10580 32.59739 19050 ft 324 kts 253°
2026-05-05 18:21 60.09956 32.55469 18603 ft 323 kts 253°
2026-05-05 18:21 60.09324 32.51152 18131 ft 322 kts 253°
2026-05-05 18:21 60.08690 32.46835 17631 ft 322 kts 253°
2026-05-05 18:21 60.08059 32.42544 17132 ft 320 kts 253°
2026-05-05 18:22 60.07430 32.38273 16660 ft 319 kts 253°
2026-05-05 18:22 60.06801 32.34024 16192 ft 317 kts 253°
2026-05-05 18:22 60.06172 32.29794 15710 ft 316 kts 253°
2026-05-05 18:22 60.05515 32.25638 15384 ft 311 kts 251°
2026-05-05 18:23 60.05055 32.22926 15144 ft 309 kts 251°
2026-05-05 18:23 60.04354 32.18878 14797 ft 307 kts 251°
2026-05-05 18:23 60.03655 32.14851 14455 ft 306 kts 251°
2026-05-05 18:23 60.02960 32.10838 14147 ft 306 kts 250°
2026-05-05 18:24 60.02265 32.06817 13787 ft 306 kts 250°
2026-05-05 18:24 60.01573 32.02801 13404 ft 305 kts 250°
2026-05-05 18:24 60.00906 31.98935 13028 ft 304 kts 250°
2026-05-05 18:24 60.00218 31.94950 12677 ft 302 kts 250°
2026-05-05 18:25 59.99534 31.90996 12321 ft 301 kts 250°
2026-05-05 18:25 59.99082 31.88388 12093 ft 299 kts 250°
2026-05-05 18:25 59.98174 31.83150 11635 ft 297 kts 250°
2026-05-05 18:25 59.97503 31.79287 11315 ft 291 kts 250°
2026-05-05 18:26 59.96869 31.75641 10945 ft 265 kts 249°
2026-05-05 18:26 59.96289 31.72317 10673 ft 245 kts 249°
2026-05-05 18:26 59.95734 31.69150 10413 ft 239 kts 249°
2026-05-05 18:26 59.95191 31.66055 10140 ft 233 kts 248°
2026-05-05 18:27 59.94661 31.63036 9878 ft 228 kts 248°
2026-05-05 18:27 59.94137 31.60061 9630 ft 227 kts 248°
2026-05-05 18:27 59.93622 31.57138 9349 ft 225 kts 248°
2026-05-05 18:27 59.93103 31.54201 9059 ft 224 kts 248°
2026-05-05 18:28 59.92058 31.48291 8574 ft 229 kts 248°
2026-05-05 18:28 59.91524 31.45279 8303 ft 231 kts 248°
2026-05-05 18:28 59.90989 31.42265 8026 ft 231 kts 248°
2026-05-05 18:29 59.90454 31.39248 7771 ft 231 kts 248°
2026-05-05 18:29 59.89917 31.36228 7504 ft 231 kts 248°
2026-05-05 18:29 59.89382 31.33225 7238 ft 230 kts 249°
2026-05-05 18:29 59.88848 31.30226 6976 ft 229 kts 249°
2026-05-05 18:30 59.88318 31.27257 6718 ft 226 kts 248°
2026-05-05 18:30 59.87795 31.24340 6458 ft 221 kts 248°
2026-05-05 18:30 59.87285 31.21486 6197 ft 217 kts 249°
2026-05-05 18:30 59.86826 31.18607 5801 ft 219 kts 251°
2026-05-05 18:31 59.86383 31.15727 5496 ft 215 kts 251°
2026-05-05 18:31 59.85949 31.12911 5256 ft 211 kts 251°
2026-05-05 18:31 59.85518 31.10130 5056 ft 209 kts 252°
2026-05-05 18:31 59.85096 31.07413 4869 ft 203 kts 252°
2026-05-05 18:32 59.84681 31.04755 4702 ft 200 kts 252°
2026-05-05 18:32 59.84269 31.02119 4555 ft 200 kts 252°
2026-05-05 18:32 59.83870 30.99578 4405 ft 200 kts 252°
2026-05-05 18:32 59.83452 30.96929 4257 ft 201 kts 253°
2026-05-05 18:33 59.83033 30.94274 4107 ft 201 kts 253°
2026-05-05 18:33 59.82613 30.91616 3945 ft 201 kts 253°
2026-05-05 18:33 59.82195 30.88961 3796 ft 201 kts 254°
2026-05-05 18:33 59.81773 30.86302 3645 ft 201 kts 254°
2026-05-05 18:34 59.81351 30.83646 3495 ft 202 kts 255°
2026-05-05 18:34 59.80928 30.80992 3327 ft 201 kts 255°
2026-05-05 18:34 59.80511 30.78389 3177 ft 199 kts 256°
2026-05-05 18:34 59.80074 30.75798 2973 ft 200 kts 249°
2026-05-05 18:35 59.79465 30.73265 2854 ft 206 kts 247°
2026-05-05 18:35 59.78817 30.70705 2713 ft 208 kts 247°
2026-05-05 18:35 59.78177 30.68165 2580 ft 202 kts 248°
2026-05-05 18:35 59.77564 30.65713 2594 ft 195 kts 248°
2026-05-05 18:36 59.76975 30.63346 2539 ft 187 kts 248°
2026-05-05 18:36 59.76416 30.61106 2502 ft 177 kts 249°
2026-05-05 18:36 59.76039 30.58930 2481 ft 159 kts 269°
2026-05-05 18:36 59.76166 30.56809 2496 ft 154 kts 287°
2026-05-05 18:37 59.76470 30.54780 2521 ft 152 kts 285°
2026-05-05 18:37 59.76749 30.52832 2479 ft 144 kts 286°
2026-05-05 18:37 59.77023 30.50983 2264 ft 134 kts 286°
2026-05-05 18:37 59.77284 30.49235 2075 ft 132 kts 287°
2026-05-05 18:38 59.77548 30.47471 1895 ft 134 kts 287°
2026-05-05 18:38 59.77813 30.45695 1693 ft 135 kts 287°
2026-05-05 18:38 59.78079 30.43939 1494 ft 132 kts 287°
2026-05-05 18:38 59.78343 30.42171 1278 ft 137 kts 287°
2026-05-05 18:39 59.78615 30.40328 1100 ft 141 kts 286°
2026-05-05 18:39 59.78899 30.38440 939 ft 146 kts 286°
2026-05-05 18:39 59.79188 30.36490 733 ft 148 kts 286°
2026-05-05 18:39 59.79482 30.34521 529 ft 149 kts 286°
2026-05-05 18:40 59.79778 30.32585 359 ft 150 kts 286°
2026-05-05 18:40 59.80067 30.30610 154 ft 148 kts 286°
2026-05-05 18:40 59.80352 30.28714 84 ft 132 kts 286°
2026-05-05 18:40 59.80566 30.27263 85 ft 87 kts 286°
2026-05-05 18:41 59.80643 30.26741 83 ft 16 kts 275°
2026-05-05 18:41 59.80593 30.26633 88 ft 12 kts 191°
2026-05-05 18:41 59.80523 30.26595 86 ft 0 kts 197°
2026-05-05 18:43 59.80512 30.26588 89 ft 6 kts 197°
2026-05-05 18:43 59.80502 30.26582 89 ft 1 kts 197°
2026-05-05 18:43 59.80482 30.26570 87 ft 6 kts 194°
2026-05-05 18:44 59.80430 30.26643 87 ft 12 kts 113°
2026-05-05 18:44 59.80408 30.26779 87 ft 10 kts 102°
2026-05-05 18:44 59.80388 30.26917 87 ft 10 kts 108°
2026-05-05 18:44 59.80366 30.27053 86 ft 10 kts 108°
2026-05-05 18:45 59.80345 30.27192 89 ft 10 kts 105°
2026-05-05 18:45 59.80325 30.27331 85 ft 10 kts 106°
2026-05-05 18:45 59.80305 30.27470 88 ft 10 kts 106°
2026-05-05 18:45 59.80283 30.27608 87 ft 10 kts 107°
2026-05-05 18:46 59.80263 30.27747 86 ft 10 kts 106°
2026-05-05 18:46 59.80238 30.27915 86 ft 16 kts 106°
2026-05-05 18:46 59.80200 30.28168 87 ft 21 kts 107°
2026-05-05 18:46 59.80160 30.28436 85 ft 19 kts 106°
2026-05-05 18:47 59.80123 30.28684 85 ft 18 kts 106°
2026-05-05 18:47 59.80090 30.28908 85 ft 15 kts 107°
2026-05-05 18:47 59.80063 30.29079 82 ft 11 kts 107°
2026-05-05 18:47 59.80044 30.29194 86 ft 7 kts 118°
2026-05-05 18:48 59.80011 30.29231 82 ft 5 kts 175°
2026-05-05 18:48 59.79973 30.29217 84 ft 6 kts 195°
2026-05-05 18:48 59.79949 30.29203 83 ft 2 kts 195°
2026-05-05 18:48 59.79938 30.29197 83 ft 2 kts 196°